This is the latest recevied weather packets stored in our database for station/object N3WGC-14. If no packets are shown the sender has not sent any weather packets the latest 10 day(s).
| Time | Temp. | Humidity | Pressure | Rain* | Wind** | Luminosity | Snow |
|---|---|---|---|---|---|---|---|
| 1787433968 | 23.89° C | 91% | 1013.5 hPa | 0 mm | - | - | - |
| 1787433668 | 23.89° C | 91% | 1013.5 hPa | 0 mm | - | - | - |
| 1787433368 | 23.89° C | 91% | 1013.6 hPa | 0 mm | - | - | - |
| 1787433068 | 23.89° C | 90% | 1013.7 hPa | 0 mm | - | - | - |
| 1787432767 | 23.89° C | 90% | 1013.7 hPa | 0 mm | - | - | - |
| 1787432467 | 23.89° C | 90% | 1013.6 hPa | 0 mm | - | - | - |
| 1787432167 | 24.44° C | 90% | 1013.6 hPa | 0 mm | - | - | - |
| 1787431867 | 24.44° C | 89% | 1013.6 hPa | 0 mm | - | - | - |
| 1787431567 | 25° C | 87% | 1013.7 hPa | 0 mm | - | - | - |
| 1787431267 | 25° C | 88% | 1013.7 hPa | 0 mm | - | - | - |
| 1787430967 | 25° C | 88% | 1013.9 hPa | 0 mm | - | - | - |
| 1787430666 | 25° C | 89% | 1013.9 hPa | 0 mm | - | - | - |
| 1787430366 | 24.44° C | 89% | 1013.9 hPa | 0 mm | - | - | - |
| 1787430066 | 24.44° C | 89% | 1014.1 hPa | 0 mm | - | - | - |
| 1787429766 | 24.44° C | 89% | 1014.1 hPa | 0 mm | - | - | - |
| 1787429466 | 24.44° C | 90% | 1014.2 hPa | 0 mm | - | - | - |
| 1787429166 | 24.44° C | 89% | 1014.2 hPa | 0 mm | - | - | - |
| 1787428865 | 24.44° C | 90% | 1014.2 hPa | 0 mm | - | - | - |
| 1787428565 | 24.44° C | 90% | 1014.4 hPa | 0 mm | - | - | - |
| 1787428265 | 24.44° C | 91% | 1014.5 hPa | 0 mm | - | - | - |
| 1787427965 | 23.89° C | 91% | 1014.6 hPa | 0 mm | - | - | - |
| 1787427665 | 23.89° C | 91% | 1014.7 hPa | 0 mm | - | - | - |
| 1787427365 | 23.89° C | 91% | 1014.7 hPa | 0 mm | - | - | - |
| 1787427065 | 23.33° C | 91% | 1014.8 hPa | 0 mm | - | - | - |
| 1787426764 | 23.33° C | 91% | 1014.9 hPa | 0 mm | - | - | - |
* Rain latest hour (hover to see other rain measurements)
** Current wind speed in m/s (hover to see current wind gust speed)